Terminal Aerodrome Forecast
Issued by NWS

Home | Current Version | Previous Version | Text Only | Print | Product List | Glossary On
Versions: 1 2 3 4 5 6 7 8 9 10 11 12 13 14 15 16 17 18 19
810
FTAK31 PAJN 041737
TAFAYA
TAF
PAYA 041737Z 0418/0518 12006KT P6SM VCSH SCT025 BKN035
      TEMPO 0418/0421 -SHRA FEW015 BKN025 OVC035
     FM042100 11007KT P6SM VCSH BKN025 OVC035
     FM050300 13011KT P6SM -RA SCT025 OVC040
     FM050600 10011G17KT 5SM -SHRA BR BKN020 OVC035
      AMD LTD TO CLD VIS AND WIND 0501/0509=

USA.gov is the U.S. government's official web portal to all federal, state and local government web resources and services.